Tracking 30061 objects as of 8-Dec-2024
HD Live streaming from Space Station
objects crossing your sky now

STARLINK-30329

Track STARLINK-30329 now!
10-day predictions
STARLINK-30329 is classified as:


NORAD ID: 57635
Int'l Code: 2023-122D
Perigee: 565.4 km
Apogee: 567.0 km
Inclination: 43.0 °
Period: 95.8 minutes
Semi major axis: 6937 km
RCS: Unknown
Launch date: August 17, 2023
Source: United States (US)
Launch site: AIR FORCE EASTERN TEST RANGE (AFETR)
Your satellite tracking list
Your tracking list is empty




NASA's NSSDC Master Catalog

Two Line Element Set (TLE):
1 57635U 23122D   24342.55772547  .00003948  00000-0  30721-3 0  9993
2 57635  43.0026  58.8784 0001128 280.6771  79.3945 15.02531805 73351
Source of the keplerian elements: AFSPC